Regional Weather Roundup
Issued by NWS

Home | Current Version | Previous Version | Graphics & Text | Print | Product List | Glossary On
Versions: 1 2 3 4 5 6 7 8 9 10 11 12 13 14 15 16 17 18 19 20 21 22 23 24 25 26 27 28 29 30 31 32 33 34 35 36 37 38 39 40 41 42 43 44 45 46 47 48 49 50
000
ASUS43 KIND 242259
RWRIN

WEATHER ROUNDUP FOR INDIANA
NATIONAL WEATHER SERVICE INDIANAPOLIS IN
700 PM EDT FRI MAR 24 2017

NOTE: "FAIR" INDICATES FEW OR NO CLOUDS BELOW 12,000 FEET WITH NO
SIGNIFICANT WEATHER AND/OR OBSTRUCTIONS TO VISIBILITY.

* - STATION DOES NOT REPORT WEATHER SUCH AS PRECIPITATION OR FOG.

+ - STATION NOT QUALITY CONTROLLED BY THE NATIONAL WEATHER SERVICE.
    USE DATA WITH CAUTION...ESPECIALLY DEWPOINT AND RELATIVE
    HUMIDITY OBSERVATIONS.

INZ001>003-010>013-019-020-250000-
NORTHWEST INDIANA

CITY           SKY/WX    TMP DP  RH WIND       PRES   REMARKS
GARY /AIRPORT/ PTSUNNY   77  48  36 SW26      29.92S
MONTICELLO +   SUNNY     71  54  55 SW22G28   29.99S

$$

LMZ046-743>745-250000-
SOUTHERN LAKE MICHIGAN

STATION/POSITION TIME  TEMP    WIND        PRES    WAVE
                       AIR SEA DIR/SP/G            HT
                 (UTC) (F)     (DEG/KT/KT) (MB)    (FT)
BURNS HARBOR     2240   73     230/ 22/ 30 1013.5R
MICHIGAN CITY    2230   74     190/ 23/ 25   N/A

$$

INZ004-005-014>016-021>024-250000-
NORTH CENTRAL INDIANA

CITY           SKY/WX    TMP DP  RH WIND       PRES   REMARKS
ELKHART        PTSUNNY   73  54  49 SW16G23   29.95R
GOSHEN         CLOUDY    71  54  54 SW23G31   29.97R
SOUTH BEND     PTSUNNY   72  54  53 SW24G32   29.95R

$$

INZ006>009-017-018-025>027-250000-
NORTHEAST INDIANA

CITY           SKY/WX    TMP DP  RH WIND       PRES   REMARKS
ANGOLA *+      MOCLDY    72  57  60 SW20      29.97R
FORT WAYNE     PTSUNNY   71  53  52 SW21G29   30.02R
KENDALLVILLE + PTCLDY    70  55  57 SW21G29   29.99R

$$

INZ028-029-035-036-043>045-051>053-250000-
WEST CENTRAL INDIANA

CITY           SKY/WX    TMP DP  RH WIND       PRES   REMARKS
CRAWFORDSVL +  CLOUDY    69  54  59 SW18G31   30.04S
LAFAYETTE      MOSUNNY   70  55  59 SW16G26   30.01S
TERRE HAUTE    PTSUNNY   71  54  54 S15G21    30.04S

$$

INZ030>032-037>040-046>048-054>057-064-065-250000-
CENTRAL INDIANA

CITY           SKY/WX    TMP DP  RH WIND       PRES   REMARKS
CP ATTERBURY + MOSUNNY   72  50  46 SW15G22   30.07S
COLUMBUS       MOSUNNY   73  54  49 S15       30.07S
INDIANAPOLIS   PTSUNNY   71  52  50 SW21G29   30.05R
-EAGLE CREEK   PTSUNNY   72  52  49 SW13G21   30.04R
KOKOMO +       PTSUNNY   71  55  56 SW21G28   30.04
SHELBYVILLE    MOSUNNY   73  51  46 SW20G28   30.06R

$$

INZ033-034-041-042-049-050-058-059-250000-
EAST CENTRAL INDIANA

CITY           SKY/WX    TMP DP  RH WIND       PRES   REMARKS
MUNCIE         SUNNY     73  53  49 SW16G23   30.03R
RICHMOND +     PTCLDY    70  54  56 SW15      30.08F HAZE

$$

INZ060-061-067>069-081>083-085>088-250000-
SOUTHWEST INDIANA

CITY           SKY/WX    TMP DP  RH WIND       PRES   REMARKS
EVANSVILLE     PTSUNNY   73  52  47 S16G22    30.07F
HUNTINGBURG *+ CLOUDY    71  56  58 S13       30.09S

$$

INZ062-063-066-070>080-084-089>092-250000-
SOUTH CENTRAL AND SOUTHEAST INDIANA

CITY           SKY/WX    TMP DP  RH WIND       PRES   REMARKS
BLOOMINGTON    PTSUNNY   73  51  46 SW13G20   30.07S
MADISON *+     MOSUNNY   72  50  46 SW10G18   30.12S
SEYMOUR +      PTSUNNY   73  54  49 S13       30.08S

$$




USA.gov is the U.S. government's official web portal to all federal, state and local government web resources and services.